STARLINK-1667, 46155

Orbit data source: Space-Track

STARLINK-1667, 46155 is a payload satellite owned by SpaceX/Seattle (US) in LEO that was launched on Tue, 18 Aug 2020 UTC via an FALCON 9 launch vehicle from the Air Force Eastern Test Range (AFETR). Payload-class satellites include a variety of spacecraft equipped with specific instruments for various scientific and technological missions. These include communications satellites like Starlink; space stations such as the ISS; scientific satellites like the Hubble; Earth observation satellites from companies like Planet Labs, Umbra, and HawkEye 360; GPS; miniature CubeSats for education and research; and military/defense satellites.

Loading next visibility...
Identifier
46155, 2020-057AQ
Orbit
LEO
Country
Flag of USUS
Related business
Manufacturer
SpaceX/Seattle
Mission
Partially operational Commercial Communications
Bus & Motor
STARLINK, Unknown motor
Mass
260 kg wet, ~248 kg dry
Launch date (UTC)
2020-08-18 (6 years ago)
Launch vehicle
FALCON 9
Launch site
Air Force Eastern Test Range (AFETR)
Object type
Payload
Rocket body
Debris
Shape & HBR
Box + 1 Pan, 10.1 m
Radar Cross Section
13.562 m², Large (>1 m²)

Expand to show TLE details & history
Last TLE update: 10 hours ago

TLE from 10 hours ago
0 STARLINK-1667
1 46155U 20057AQ  26072.39048586  .00100835  00000-0  98730-3 0  9992
2 46155  53.0237 206.6162 0003399 190.4465 169.6479 15.65340117309174
Epoch: 2026-03-13T09:22Z
TLE epoch observation values (Epoch: 2026-03-13T09:22:17.978Z)
Latitude
-0.00002°
Longitude
-104.98543°
Altitude
375.416 km
Speed
7.684 km/s
True Right ascension
13h 46m 27s
True Declination
0° 00' 00"
Sunlit
Object was in full shadow at epoch
Visualization orbit readout
Latitude
Unknown
Longitude
Unknown
Altitude
Unknown
Speed
Unknown
Apparent Right ascension
Unknown
Apparent Declination
Unknown
Sunlit
N/A
Visualization observer readout
Local Sidereal Time
00:14:00
Azimuth
Unknown
Elevation
Unknown
Doppler factor
Unknown
Orbital elements
Apogee altitude
374.838 km
Perigee altitude
370.249 km
Semi-major axis
6,750.68 km
Eccentricity
0.00034
Inclination
53.0237°
RAAN
206.6162°
Arg. of periapsis
190.4465°
True anomaly
169.6549°
Mean anomaly
169.6479°
Eccentric anomaly
169.6514°
Mean motion
3.91311 °/min
Orbital period
92 mins
BSTAR
0.0009873
Loading maneuver chart data...
Computing Atmospheric mass density...

Documentation

Showing up to 5 results
|